Weather History for El Dorado, AR

Change the Weather History Date:

Saturday, January 5, 2013

  Actual Average Record
Temperature  
Mean Temperature 39 °F 44 °F  
Max Temperature 46 °F 54 °F 75 °F (1922)
Min Temperature 31 °F 33 °F 13 °F (1959)
Degree Days  
Heating Degree Days 26 22  
Month to date heating degree days 127 108  
Since 1 July heating degree days 1105 1195  
Cooling Degree Days 0 0  
Month to date cooling degree days 0 0  
Year to date cooling degree days 0 0  
Moisture  
Dew Point 37 °F    
Average Humidity 92    
Maximum Humidity 100    
Minimum Humidity 83    
Precipitation  
Precipitation 0.08 in 0.14 in 2.80 in (1932)
Month to date precipitation 0.27 0.68  
Year to date precipitation 0.27 0.68  
Snow  
Snow 0.00 in - - ()
Month to date snowfall 0.0  
Since 1 July snowfall T  
Snow Depth 0.00 in    
Sea Level Pressure  
Sea Level Pressure 30.33 in    
Wind  
Wind Speed 3 mph (SSE)    
Max Wind Speed 9 mph    
Max Gust Speed 13 mph    
Visibility 8 miles    
Events Rain    
T = Trace of Precipitation, MM = Missing Value Source: NWS Daily Summary

Daily Weather History Graph

Daily Weather History Graph

Search for Another Location

Airport:

Trip Planner

Search our weather history database for the weather conditions in past years. The results will help you decide how hot, cold, wet, or windy it might be!

Date:

Astronomy

Jan. 05, 2013 Rise Set
Actual Time 7:15 AM CST 5:18 PM CST
Civil Twilight 6:48 AM CST 5:45 PM CST
Nautical Twilight 6:17 AM CST 6:16 PM CST
Astronomical Twilight 5:47 AM CST 6:46 PM CST
Moon 12:33 AM CST (1/5) 11:59 AM CST (1/5)
Length of Visible Light 10h 57m
Length of Day
10h 03m
Last Quarter, 44% of the Moon is Illuminated
Jan 5
Last Quarter
Jan 11
New
Jan 18
First Quarter
Jan 26
Full
Feb 3
Last Quarter

Hourly Weather History & Observations

Time (CST) Temp. Windchill Dew Point Humidity Pressure Visibility Wind Dir Wind Speed Gust Speed Precip Events Conditions
12:53 AM 39.0 °F - 34.0 °F 82% 30.36 in 10.0 mi Calm Calm - 0.00 in Rain Light Rain
1:53 AM 37.0 °F - 34.0 °F 89% 30.36 in 10.0 mi Calm Calm - 0.00 in   Mostly Cloudy
2:53 AM 39.0 °F - 35.1 °F 86% 30.38 in 10.0 mi Calm Calm - N/A   Overcast
3:53 AM 39.0 °F - 36.0 °F 89% 30.38 in 10.0 mi Calm Calm - 0.02 in Rain Light Rain
4:53 AM 39.0 °F 36.8 °F 37.0 °F 93% 30.41 in 7.0 mi South 3.5 mph - 0.00 in Rain Light Rain
5:53 AM 39.0 °F - 37.0 °F 93% 30.40 in 6.0 mi Calm Calm - 0.04 in Rain Light Rain
6:53 AM 39.0 °F 36.8 °F 37.0 °F 93% 30.41 in 10.0 mi South 3.5 mph - 0.02 in Rain Light Rain
7:53 AM 39.0 °F - 37.9 °F 96% 30.40 in 6.0 mi Calm Calm - 0.00 in   Overcast
8:53 AM 41.0 °F 38.0 °F 39.0 °F 93% 30.38 in 7.0 mi SSE 4.6 mph - N/A   Overcast
9:53 AM 42.1 °F 38.4 °F 39.0 °F 89% 30.38 in 10.0 mi SE 5.8 mph - N/A   Overcast
10:50 AM 42.8 °F - 39.2 °F 87% 30.37 in 10.0 mi Calm Calm - N/A   Overcast
10:53 AM 43.0 °F 39.5 °F 39.0 °F 86% 30.38 in 10.0 mi SSE 5.8 mph - N/A   Overcast
11:53 AM 44.1 °F 41.5 °F 39.0 °F 82% 30.37 in 10.0 mi SSW 4.6 mph - N/A   Overcast
12:13 PM 44.6 °F 42.2 °F 39.2 °F 81% 30.35 in 10.0 mi South 4.6 mph - N/A   Overcast
12:49 PM 44.6 °F 42.2 °F 39.2 °F 81% 30.33 in 10.0 mi South 4.6 mph - N/A   Overcast
12:53 PM 44.1 °F 40.8 °F 39.0 °F 82% 30.33 in 10.0 mi South 5.8 mph - N/A   Overcast
1:53 PM 45.0 °F 41.2 °F 39.9 °F 82% 30.30 in 10.0 mi South 6.9 mph - N/A   Overcast
2:53 PM 45.0 °F 42.6 °F 39.0 °F 80% 30.29 in 10.0 mi SSE 4.6 mph - N/A   Overcast
3:33 PM 46.4 °F 43.5 °F 39.2 °F 76% 30.29 in 10.0 mi South 5.8 mph - N/A   Overcast
3:53 PM 45.0 °F 40.6 °F 39.9 °F 82% 30.29 in 10.0 mi SSE 8.1 mph - N/A   Overcast
4:10 PM 44.6 °F 40.2 °F 39.2 °F 81% 30.29 in 10.0 mi SSE 8.1 mph - N/A   Overcast
4:48 PM 44.6 °F 41.4 °F 39.2 °F 81% 30.30 in 10.0 mi SSE 5.8 mph - N/A   Overcast
4:53 PM 44.1 °F 39.5 °F 39.9 °F 85% 30.30 in 10.0 mi SSE 8.1 mph - N/A   Overcast
5:02 PM 44.6 °F 40.7 °F 39.2 °F 81% 30.30 in 10.0 mi SSE 6.9 mph - N/A   Overcast
5:53 PM 43.0 °F 41.3 °F 39.9 °F 89% 30.31 in 10.0 mi South 3.5 mph - N/A   Overcast
6:53 PM 42.1 °F - 39.0 °F 89% 30.31 in 10.0 mi Calm Calm - N/A   Overcast
7:30 PM 39.2 °F - 37.4 °F 93% 30.30 in 8.0 mi Calm Calm - N/A   Partly Cloudy
7:53 PM 39.0 °F - 37.0 °F 93% 30.30 in 5.0 mi Calm Calm - N/A   Clear
8:30 PM 37.4 °F - 35.6 °F 93% 30.29 in 1.5 mi Calm Calm - N/A   Clear
8:44 PM 37.4 °F - 35.6 °F 93% 30.29 in 3.0 mi Calm Calm - N/A   Clear
8:53 PM 36.0 °F - 35.1 °F 97% 30.29 in 3.0 mi Calm Calm - N/A   Clear
9:27 PM 35.6 °F - 33.8 °F 93% 30.29 in 2.5 mi Calm Calm - N/A   Clear
9:41 PM 35.6 °F - 33.8 °F 93% 30.29 in 4.0 mi Calm Calm - N/A   Clear
9:53 PM 34.0 °F - 32.0 °F 92% 30.30 in 7.0 mi Calm Calm - N/A   Clear
10:53 PM 33.1 °F - 30.9 °F 92% 30.32 in 5.0 mi Calm Calm - N/A   Scattered Clouds
11:01 PM 33.8 °F - 32.0 °F 93% 30.32 in 5.0 mi Calm Calm - N/A   Mostly Cloudy
11:37 PM 32.0 °F - 30.2 °F 93% 30.30 in 1.5 mi Calm Calm - N/A   Mostly Cloudy
11:48 PM 32.0 °F - 30.2 °F 93% 30.30 in 3.0 mi Calm Calm - N/A   Mostly Cloudy
11:53 PM 32.0 °F - 30.0 °F 92% 30.31 in 2.5 mi Calm Calm - N/A   Scattered Clouds